Wind_Speed
39 38 39 39 38 37 36 35 34 32 31 30 29 28 27 26 25 24 24 24 23 21 20 20 19 17 15 14 14 14 13 11 10 10 10 11 12 13 14 14 14 13
39 38 40 40 40 39 38 37 36 34 33 31 29 29 28 27 27 26 25 24 23 22 21 20 20 18 16 16 16 16 15 13 11 11 11 12 13 14 15 14 14 15
41 40 40 40 40 40 38 37 37 35 33 32 30 30 29 29 28 28 27 26 24 23 22 21 20 19 18 17 18 17 16 15 13 12 12 13 14 15 15 15 14 15
43 41 41 41 40 39 37 37 36 34 33 32 31 30 30 30 30 30 29 28 27 25 24 22 21 20 19 19 20 19 18 17 16 14 13 14 16 16 16 16 16 15
45 43 42 41 40 38 37 36 35 34 33 31 30 30 30 31 30 31 31 31 29 27 26 24 23 22 21 21 21 21 19 18 17 15 15 17 17 17 17 17 18 17
46 45 43 42 40 38 38 38 36 35 33 31 30 29 30 31 31 31 32 32 31 29 28 27 25 24 23 23 23 22 21 21 19 17 17 19 19 18 18 19 19 19
47 46 45 43 42 40 39 39 38 36 35 33 32 30 30 31 32 32 32 33 32 30 29 28 27 26 25 24 24 24 23 24 22 20 20 21 20 20 20 20 20 20
46 46 46 45 43 42 42 41 39 38 36 35 34 33 31 31 32 33 33 34 33 32 31 30 29 28 27 26 26 25 25 25 25 24 24 23 22 22 22 22 22 21
46 46 46 45 45 44 44 42 41 39 38 37 36 35 33 33 32 33 35 35 35 34 33 32 31 29 28 28 28 27 26 26 26 26 26 25 24 24 24 23 23 23
45 45 46 46 46 46 45 43 42 40 39 38 37 36 36 35 34 34 36 37 37 37 35 34 33 32 31 30 30 29 28 27 27 28 28 27 26 25 25 25 25 24
44 44 45 45 46 46 46 45 43 42 41 39 38 38 38 37 36 36 37 38 39 39 38 37 35 34 33 32 31 31 30 29 29 29 29 29 27 26 26 26 26 25
44 44 44 43 43 44 45 44 43 43 42 41 39 39 39 39 39 38 38 39 40 40 39 39 37 36 35 34 33 33 32 31 31 31 31 31 30 29 28 28 27 26
45 44 43 42 42 42 43 43 42 42 42 41 39 39 39 40 40 40 39 40 40 40 40 40 39 38 38 37 35 35 34 33 33 33 32 32 32 31 30 30 29 28
47 45 43 43 43 42 42 42 42 41 42 41 40 39 40 40 41 41 40 39 40 40 40 40 40 40 40 39 38 37 37 36 35 34 34 34 34 33 32 32 31 31
48 47 45 45 45 45 44 43 43 43 43 42 42 41 40 40 41 41 40 40 39 40 40 40 41 42 43 42 40 40 39 38 37 36 35 35 35 35 34 34 33 33
48 47 46 46 47 47 46 45 45 46 45 45 44 43 41 41 41 42 42 41 40 40 41 41 42 44 44 44 42 41 40 40 39 38 37 37 37 36 36 36 35 34
48 47 47 47 47 47 47 46 47 47 47 47 46 45 44 43 43 43 44 43 43 41 41 42 43 44 46 45 44 42 42 41 41 40 39 39 39 39 38 37 36 35
47 47 47 47 47 47 47 46 47 48 48 48 48 47 45 45 45 45 44 45 45 44 43 43 44 45 46 46 45 44 43 42 42 42 41 40 40 40 39 38 37 36
45 45 46 47 47 47 47 46 46 48 49 49 49 47 46 46 46 45 45 45 45 46 45 45 45 45 46 46 46 45 44 43 43 43 43 43 42 41 40 39 38 38
44 44 45 46 46 46 46 47 47 47 48 49 49 49 49 48 48 47 46 45 45 46 46 46 47 47 46 46 46 45 44 44 43 43 44 44 44 43 42 41 40 39
42 43 44 45 46 47 47 48 48 48 48 49 49 49 49 49 49 48 47 46 46 46 46 47 48 48 47 47 46 45 44 43 42 42 43 45 46 45 44 42 41 41
41 41 43 44 46 47 48 48 48 48 48 49 49 49 49 49 48 48 47 47 47 47 47 48 48 48 48 47 46 44 43 42 42 43 43 46 47 46 45 43 41 41
42 42 43 44 46 47 47 47 47 47 47 48 48 48 49 49 49 48 47 47 47 47 48 49 48 48 49 47 46 44 43 43 43 43 45 46 46 46 46 44 41 39
42 43 44 44 45 45 45 45 45 46 46 47 47 47 47 47 47 47 47 47 47 47 48 49 49 50 50 49 47 45 44 44 44 44 45 45 45 46 44 40 38 39
41 41 42 42 42 41 42 43 44 45 45 45 46 46 46 45 44 45 46 47 47 47 47 48 49 50 51 50 49 47 45 45 44 44 45 45 45 45 40 35 36 39
40 39 39 40 40 40 41 42 42 43 43 44 45 44 44 44 43 44 45 46 45 45 46 47 48 48 50 51 51 49 47 46 46 46 46 45 46 45 42 38 35 35
Wind_Direction
228 229 232 233 234 235 235 236 236 236 236 234 233 232 231 232 234 234 236 237 238 238 240 241 240 237 235 235 233 232 234 229 220 217 214 221 223 214 210 211 208 208
228 229 232 233 233 234 235 236 236 237 237 236 236 235 234 233 234 235 236 238 239 238 241 242 243 242 236 234 237 234 233 232 225 221 220 223 223 217 214 213 213 216
229 229 231 232 233 233 233 235 236 237 237 237 236 236 236 235 235 236 236 236 237 238 239 240 242 244 239 235 239 238 234 235 231 225 225 229 227 221 217 215 215 220
230 230 230 231 233 232 232 233 235 236 236 236 236 235 235 235 235 235 236 235 235 236 238 238 239 242 242 240 241 238 235 236 235 226 224 230 230 224 219 217 215 219
231 231 229 230 231 231 231 232 233 234 234 234 234 234 233 233 232 233 234 234 233 233 236 237 237 238 240 240 241 239 235 235 233 226 225 231 232 226 222 221 219 219
231 231 230 231 232 230 231 232 232 233 234 233 233 233 232 231 230 231 232 232 231 231 232 235 237 237 237 237 238 237 235 235 232 227 227 232 233 229 224 224 224 223
231 230 230 231 232 231 232 233 233 233 234 234 234 234 232 231 229 229 230 230 230 229 230 232 234 235 236 236 235 235 235 235 232 230 231 233 234 233 228 227 226 225
230 230 229 229 230 231 232 233 234 233 233 234 235 234 232 232 230 228 228 229 229 228 228 229 232 234 235 235 235 234 234 234 233 234 235 234 234 234 232 230 229 227
229 229 228 227 228 230 232 233 234 234 234 233 234 234 233 232 230 229 228 228 229 229 228 228 230 231 233 234 235 234 233 234 234 235 236 235 235 235 234 233 232 230
230 229 228 228 228 229 231 232 234 235 235 234 233 234 234 233 230 229 229 228 228 230 229 228 228 230 231 232 234 234 234 234 234 235 236 237 236 236 237 237 235 234
230 229 229 228 228 229 230 232 233 234 235 234 232 232 234 234 231 229 229 229 229 229 230 230 229 229 230 231 233 234 234 234 235 235 236 237 237 237 237 238 238 237
233 231 230 228 228 228 229 230 231 232 234 234 231 231 232 234 232 229 229 229 229 229 231 231 231 230 231 231 233 235 235 235 236 236 237 237 238 237 237 238 239 239
235 234 232 230 229 228 228 229 230 231 232 232 231 230 230 232 233 231 230 230 230 231 231 232 233 232 232 232 232 235 236 235 235 236 237 238 239 238 238 239 240 240
235 235 234 233 232 230 229 229 230 231 232 232 232 231 230 231 233 233 232 231 231 232 232 233 234 234 234 233 232 233 235 236 235 236 238 239 240 239 239 240 241 241
235 236 235 235 235 233 232 230 230 231 232 233 233 233 231 231 233 234 234 233 232 233 233 234 235 236 236 234 232 232 234 236 236 236 237 239 240 240 240 240 241 242
236 237 237 236 236 235 234 233 232 232 233 233 234 234 234 233 233 234 235 234 233 233 234 234 235 236 237 236 235 234 234 236 237 237 237 238 240 241 241 241 241 242
236 238 238 237 237 236 236 235 234 234 234 235 236 236 236 235 235 235 236 236 235 234 234 235 236 237 238 238 237 236 235 236 237 238 238 238 240 242 242 242 242 242
237 237 238 238 238 238 237 237 236 236 236 236 237 238 237 237 237 237 236 237 237 236 236 236 237 238 239 240 239 237 237 237 238 239 240 240 240 242 243 244 244 243
237 237 238 239 239 239 239 238 238 237 237 238 239 239 239 239 239 239 239 238 239 238 238 237 238 239 240 241 240 239 238 238 239 240 241 241 242 243 244 244 244 244
237 238 239 239 240 240 239 240 240 239 239 239 239 240 241 241 241 242 241 240 240 240 239 239 240 240 241 241 241 241 240 240 240 241 242 243 244 244 244 245 245 245
236 238 239 239 240 240 239 240 241 241 241 240 239 240 241 243 244 244 244 243 242 242 242 241 240 241 242 243 242 242 242 242 241 242 243 244 245 245 245 245 246 245
235 236 237 237 238 238 239 240 241 242 242 241 240 240 241 243 244 245 245 245 245 244 244 243 242 241 242 243 243 243 243 243 242 242 242 243 244 245 245 245 245 244
235 235 236 236 235 236 238 240 241 243 243 242 241 240 241 242 244 245 246 246 246 245 244 244 243 242 242 242 243 243 242 242 241 241 241 241 242 244 245 245 244 241
236 235 235 236 236 238 241 242 242 243 243 243 243 242 241 242 243 245 246 246 247 246 244 245 245 244 243 242 241 241 241 241 241 241 241 241 242 243 243 242 241 240
237 237 238 239 240 242 243 243 243 243 244 245 245 245 244 241 240 243 245 247 248 248 247 247 246 246 245 244 242 241 240 240 240 241 241 241 241 240 239 237 239 240
239 240 242 242 242 243 244 244 244 245 245 246 247 246 244 242 240 242 245 247 248 248 249 250 249 248 248 248 246 244 241 241 240 239 240 240 239 238 237 236 236 236
Height
1531 1533 1535 1537 1539 1541 1543 1545 1547 1549 1551 1553 1554 1556 1557 1559 1560 1561 1562 1563 1564 1566 1567 1568 1569 1571 1572 1573 1573 1574 1575 1574 1575 1576 1575 1576 1577 1578 1578 1579 1580 1582
1527 1529 1531 1533 1535 1537 1539 1541 1544 1546 1548 1550 1552 1553 1555 1556 1557 1558 1560 1561 1562 1563 1564 1566 1567 1568 1569 1570 1571 1572 1573 1572 1573 1574 1574 1574 1575 1576 1577 1578 1579 1580
1523 1525 1527 1529 1531 1533 1536 1538 1540 1542 1545 1546 1548 1550 1552 1553 1554 1556 1557 1558 1559 1561 1562 1563 1564 1565 1567 1568 1569 1570 1571 1571 1571 1572 1572 1573 1574 1574 1575 1576 1577 1578
1519 1522 1524 1526 1528 1530 1533 1535 1537 1539 1541 1543 1544 1546 1548 1550 1551 1552 1554 1555 1556 1558 1559 1560 1561 1562 1564 1565 1566 1567 1568 1568 1569 1570 1570 1571 1571 1572 1573 1574 1575 1576
1515 1518 1520 1522 1524 1527 1529 1531 1533 1535 1537 1539 1541 1543 1544 1546 1547 1549 1550 1552 1553 1555 1556 1557 1558 1559 1560 1562 1563 1564 1565 1566 1567 1567 1568 1568 1569 1570 1571 1572 1573 1574
1511 1513 1516 1519 1521 1523 1525 1527 1530 1531 1534 1536 1538 1539 1540 1542 1544 1545 1547 1548 1550 1551 1552 1554 1555 1556 1558 1559 1560 1561 1562 1564 1564 1565 1565 1566 1567 1568 1569 1569 1570 1571
1506 1509 1512 1515 1517 1519 1521 1523 1526 1528 1530 1532 1534 1535 1537 1538 1540 1541 1543 1544 1546 1547 1549 1550 1552 1553 1554 1556 1557 1558 1559 1561 1562 1562 1562 1563 1565 1566 1566 1567 1568 1569
1501 1504 1507 1510 1513 1515 1517 1519 1522 1524 1527 1528 1530 1532 1533 1535 1536 1538 1539 1541 1542 1544 1545 1547 1548 1549 1551 1552 1554 1555 1556 1558 1559 1559 1560 1561 1562 1563 1564 1565 1565 1566
1496 1499 1502 1505 1508 1510 1512 1515 1517 1520 1522 1524 1526 1528 1529 1531 1532 1534 1535 1537 1538 1540 1541 1543 1544 1546 1548 1549 1550 1552 1553 1554 1555 1556 1557 1558 1559 1560 1561 1562 1563 1564
1491 1494 1497 1500 1503 1506 1508 1511 1513 1515 1517 1519 1522 1524 1525 1526 1528 1530 1531 1532 1534 1536 1537 1539 1540 1542 1544 1546 1547 1549 1550 1551 1552 1553 1554 1555 1556 1557 1558 1559 1560 1561
1485 1489 1492 1495 1498 1501 1503 1506 1509 1511 1513 1515 1517 1519 1520 1522 1524 1526 1527 1528 1529 1531 1533 1535 1537 1538 1540 1542 1543 1545 1547 1548 1549 1550 1551 1552 1553 1554 1555 1556 1557 1558
1480 1483 1486 1489 1493 1496 1499 1502 1504 1506 1508 1509 1512 1514 1516 1518 1519 1521 1522 1523 1525 1527 1529 1531 1533 1535 1536 1538 1540 1541 1543 1544 1545 1546 1547 1548 1550 1551 1552 1553 1554 1555
1474 1478 1481 1484 1487 1491 1494 1497 1499 1501 1503 1505 1507 1509 1511 1513 1514 1516 1518 1519 1521 1523 1525 1527 1529 1531 1532 1534 1536 1537 1539 1540 1542 1543 1544 1545 1546 1547 1548 1549 1550 1552
1469 1473 1476 1480 1483 1486 1489 1492 1494 1496 1498 1500 1502 1504 1506 1508 1510 1512 1514 1516 1518 1520 1522 1524 1525 1527 1528 1530 1532 1533 1534 1536 1538 1539 1540 1541 1542 1543 1545 1545 1546 1548
1464 1468 1472 1475 1478 1480 1483 1486 1488 1491 1493 1495 1497 1499 1502 1504 1506 1508 1510 1512 1514 1516 1518 1519 1521 1522 1523 1525 1527 1529 1530 1532 1534 1535 1536 1537 1538 1539 1541 1541 1542 1544
1459 1463 1466 1469 1472 1474 1477 1480 1483 1486 1488 1490 1492 1494 1497 1499 1502 1504 1506 1507 1509 1511 1513 1515 1516 1517 1518 1520 1522 1525 1526 1528 1529 1531 1532 1533 1534 1535 1536 1537 1538 1540
1455 1458 1460 1463 1466 1469 1472 1475 1478 1481 1483 1485 1487 1489 1492 1495 1497 1499 1501 1503 1504 1506 1508 1509 1510 1512 1513 1515 1518 1520 1522 1524 1525 1527 1528 1529 1530 1531 1532 1533 1534 1536
1450 1453 1455 1458 1461 1463 1467 1470 1474 1476 1478 1480 1482 1484 1487 1489 1491 1493 1496 1498 1499 1501 1503 1504 1505 1506 1508 1510 1513 1515 1518 1520 1521 1522 1523 1524 1525 1526 1528 1529 1530 1532
1447 1449 1451 1453 1455 1458 1462 1466 1469 1471 1473 1475 1477 1480 1482 1484 1486 1488 1490 1492 1494 1496 1498 1499 1500 1501 1502 1505 1507 1510 1513 1515 1517 1518 1519 1520 1521 1522 1523 1525 1526 1527
1443 1445 1447 1449 1452 1455 1458 1461 1463 1466 1468 1471 1473 1475 1477 1478 1481 1483 1485 1487 1489 1490 1492 1494 1495 1495 1497 1499 1502 1505 1508 1510 1512 1514 1515 1515 1516 1517 1519 1520 1521 1522
1438 1440 1443 1446 1449 1452 1454 1457 1459 1461 1464 1467 1469 1471 1472 1474 1476 1479 1480 1482 1484 1485 1487 1488 1489 1491 1492 1494 1497 1500 1503 1506 1508 1509 1510 1511 1511 1512 1513 1515 1516 1517
1432 1436 1438 1442 1445 1447 1450 1452 1454 1456 1459 1462 1465 1467 1468 1470 1471 1473 1475 1476 1478 1480 1481 1482 1484 1485 1486 1488 1492 1495 1498 1501 1502 1503 1504 1504 1505 1506 1508 1510 1510 1511
1429 1432 1434 1437 1440 1442 1444 1446 1449 1451 1454 1457 1459 1462 1463 1465 1466 1467 1469 1471 1472 1474 1475 1476 1477 1479 1481 1483 1486 1489 1492 1494 1495 1496 1497 1498 1499 1501 1502 1504 1504 1505
1425 1428 1431 1433 1435 1437 1439 1442 1444 1447 1450 1452 1454 1457 1459 1460 1462 1463 1464 1465 1466 1467 1468 1470 1471 1473 1474 1476 1479 1482 1484 1486 1488 1490 1491 1492 1494 1495 1497 1497 1497 1498
1422 1425 1427 1430 1431 1433 1436 1439 1441 1444 1446 1448 1450 1452 1454 1457 1458 1459 1460 1460 1461 1462 1463 1464 1465 1466 1467 1469 1472 1475 1478 1480 1482 1483 1484 1486 1488 1489 1490 1491 1491 1492
1418 1421 1424 1426 1428 1430 1433 1435 1438 1440 1442 1444 1445 1447 1449 1451 1453 1454 1455 1455 1457 1458 1458 1459 1460 1461 1462 1463 1466 1469 1472 1474 1475 1476 1477 1479 1480 1482 1483 1483 1485 1485